This is the latest recevied weather packets stored in our database for station/object VU3HGG-WX. If no packets are shown the sender has not sent any weather packets the latest 10 day(s).
| Time | Temp. | Humidity | Pressure | Rain* | Wind** | Luminosity | Snow |
|---|---|---|---|---|---|---|---|
| 1787910375 | 27.22° C | 59% | 907.6 hPa | - | - | - | - |
| 1787909775 | 27.22° C | 59% | 907.7 hPa | - | - | - | - |
| 1787909175 | 26.67° C | 59% | 907.7 hPa | - | - | - | - |
| 1787908575 | 26.67° C | 59% | 907.8 hPa | - | - | - | - |
| 1787907975 | 26.67° C | 59% | 907.9 hPa | - | - | - | - |
| 1787907375 | 26.67° C | 59% | 907.9 hPa | - | - | - | - |
| 1787906775 | 26.67° C | 59% | 908 hPa | - | - | - | - |
| 1787906175 | 27.22° C | 59% | 908.3 hPa | - | - | - | - |
| 1787905576 | 27.22° C | 59% | 908.6 hPa | - | - | - | - |
| 1787904976 | 27.22° C | 59% | 908.7 hPa | - | - | - | - |
| 1787904375 | 26.67° C | 62% | 908.9 hPa | - | - | - | - |
| 1787904268 | 27.22° C | 59% | 908.9 hPa | - | - | - | - |
| 1787903726 | 26.67° C | 62% | 909 hPa | - | - | - | - |
| 1787903497 | 26.67° C | 63% | 909.2 hPa | - | - | - | - |
| 1787902624 | 26.67° C | 63% | 909.4 hPa | - | - | - | - |
| 1787902025 | 26.67° C | 64% | 909.5 hPa | - | - | - | - |
| 1787901424 | 26.67° C | 62% | 909.8 hPa | - | - | - | - |
| 1787900824 | 26.11° C | 64% | 909.9 hPa | - | - | - | - |
| 1787900224 | 26.11° C | 64% | 910.2 hPa | - | - | - | - |
| 1787899624 | 26.11° C | 64% | 910.4 hPa | - | - | - | - |
| 1787899024 | 26.11° C | 64% | 910.4 hPa | - | - | - | - |
| 1787898425 | 26.11° C | 65% | 910.5 hPa | - | - | - | - |
| 1787897824 | 26.11° C | 64% | 910.6 hPa | - | - | - | - |
| 1787897224 | 26.11° C | 64% | 910.9 hPa | - | - | - | - |
| 1787896624 | 26.11° C | 65% | 910.9 hPa | - | - | - | - |
* Rain since midnight (hover to see other rain measurements)
** Current wind speed in m/s (hover to see current wind gust speed)